• In Hungary
  • List of Countries
  • For 7 days
  • Water Temperature
  • Satellite Maps
  • Weather Map
  • News
  • Weather Widgets
  • user-avatar
    Login

    Hourly Weather Holoy

    Today, 21 September, Friday

    Time Temperature Precipitation Wind Pressure Humidity
    00:00 -8°C° 0 mm 4 mps 608 mmHg 89%
    01:00 -7°C° 0 mm 3 mps 608 mmHg 91%
    02:00 -7°C° 0 mm 2 mps 608 mmHg 92%
    03:00 -7°C° 0 mm 2 mps 607 mmHg 92%
    04:00 -8°C° 0 mm 2 mps 607 mmHg 93%
    05:00 -8°C° 0 mm 2 mps 607 mmHg 91%
    06:00 -7°C° 0 mm 2 mps 608 mmHg 89%
    07:00 -7°C° 0 mm 2 mps 608 mmHg 87%
    08:00 -5°C° 0 mm 2 mps 608 mmHg 79%
    09:00 -3°C° 0 mm 2 mps 609 mmHg 72%
    10:00 +1°C° 0 mm 2 mps 610 mmHg 64%
    11:00 +1°C° 0 mm 2 mps 609 mmHg 63%
    12:00 +2°C° 0 mm 2 mps 609 mmHg 61%
    13:00 +3°C° 0 mm 2 mps 609 mmHg 60%
    14:00 +3°C° 0 mm 2 mps 609 mmHg 61%
    15:00 +2°C° 0 mm 2 mps 609 mmHg 63%
    16:00 +2°C° 0 mm 2 mps 609 mmHg 65%
    17:00 -1°C° 0 mm 2 mps 609 mmHg 73%
    18:00 -1°C° 0 mm 1 mps 608 mmHg 82%
    19:00 -3°C° 0 mm 1 mps 608 mmHg 90%
    20:00 -4°C° 0 mm 1 mps 608 mmHg 91%
    21:00 -6°C° 0 mm 2 mps 608 mmHg 92%
    22:00 -6°C° 0 mm 2 mps 609 mmHg 93%
    23:00 -7°C° 0 mm 2 mps 609 mmHg 93%

    Tomorrow, 22 September, Saturday

    Time Temperature Precipitation Wind Pressure Humidity
    00:00 -7°C° 0 mm 2 mps 609 mmHg 93%
    01:00 -7°C° 0 mm 2 mps 609 mmHg 94%
    02:00 -7°C° 0 mm 2 mps 609 mmHg 93%
    03:00 -7°C° 0 mm 2 mps 609 mmHg 92%
    04:00 -7°C° 0 mm 2 mps 609 mmHg 92%
    05:00 -6°C° 0 mm 2 mps 610 mmHg 88%
    06:00 -6°C° 0 mm 2 mps 610 mmHg 83%
    07:00 -5°C° 0 mm 2 mps 610 mmHg 79%
    08:00 0°C° 0 mm 1 mps 611 mmHg 70%
    09:00 +3°C° 0 mm 1 mps 612 mmHg 61%
    10:00 +5°C° 0 mm 0 mps 613 mmHg 51%
    11:00 +7°C° 0 mm 1 mps 613 mmHg 49%
    12:00 +7°C° 0 mm 1 mps 612 mmHg 47%
    13:00 +8°C° 0 mm 1 mps 612 mmHg 45%
    14:00 +8°C° 0 mm 1 mps 612 mmHg 49%
    15:00 +7°C° 0 mm 1 mps 611 mmHg 53%
    16:00 +7°C° 0 mm 1 mps 611 mmHg 56%
    17:00 +4°C° 0 mm 1 mps 610 mmHg 66%
    18:00 +2°C° 0 mm 1 mps 609 mmHg 75%
    19:00 -1°C° 0 mm 1 mps 608 mmHg 85%
    20:00 -1°C° 0 mm 1 mps 608 mmHg 84%
    21:00 -2°C° 0 mm 1 mps 609 mmHg 82%
    22:00 -4°C° 0 mm 2 mps 609 mmHg 81%
    23:00 -4°C° 0 mm 2 mps 609 mmHg 80%

    Day after tomorrow, 23 September, Sunday

    Time Temperature Precipitation Wind Pressure Humidity
    00:00 -5°C° 0 mm 2 mps 608 mmHg 79%
    01:00 -5°C° 0 mm 2 mps 608 mmHg 78%
    02:00 -5°C° 0 mm 2 mps 608 mmHg 77%
    03:00 -5°C° 0 mm 2 mps 608 mmHg 76%
    04:00 -5°C° 0 mm 2 mps 608 mmHg 75%
    05:00 -5°C° 0 mm 2 mps 608 mmHg 72%
    06:00 -4°C° 0 mm 2 mps 608 mmHg 69%
    07:00 -4°C° 0 mm 2 mps 608 mmHg 66%
    08:00 -1°C° 0 mm 2 mps 609 mmHg 60%
    09:00 +4°C° 0 mm 1 mps 610 mmHg 54%
    10:00 +7°C° 0 mm 1 mps 610 mmHg 48%
    11:00 +8°C° 0 mm 1 mps 610 mmHg 47%
    12:00 +8°C° 0 mm 2 mps 610 mmHg 46%
    13:00 +9°C° 0 mm 2 mps 610 mmHg 46%
    14:00 +8°C° 0 mm 2 mps 609 mmHg 51%
    15:00 +9°C° 0 mm 1 mps 609 mmHg 56%
    16:00 +8°C° 0 mm 1 mps 608 mmHg 60%
    17:00 +6°C° 0 mm 1 mps 608 mmHg 68%
    18:00 +4°C° 0 mm 1 mps 607 mmHg 76%
    19:00 +2°C° 0 mm 1 mps 606 mmHg 83%
    20:00 -1°C° 0 mm 2 mps 606 mmHg 83%
    21:00 -1°C° 0 mm 2 mps 606 mmHg 83%
    22:00 -2°C° 0 mm 2 mps 606 mmHg 83%
    23:00 -2°C° 0 mm 2 mps 606 mmHg 82%

    24 September, Monday

    Time Temperature Precipitation Wind Pressure Humidity
    00:00 -2°C° 0 mm 2 mps 606 mmHg 81%
    01:00 -2°C° 0 mm 2 mps 606 mmHg 80%
    02:00 -3°C° 0 mm 2 mps 605 mmHg 79%
    03:00 -3°C° 0 mm 2 mps 605 mmHg 78%
    04:00 -3°C° 0 mm 2 mps 605 mmHg 77%
    05:00 -2°C° 0 mm 2 mps 606 mmHg 74%
    06:00 -2°C° 0 mm 2 mps 606 mmHg 71%
    07:00 -1°C° 0 mm 2 mps 606 mmHg 68%
    08:00 +4°C° 0 mm 1 mps 607 mmHg 61%
    09:00 +7°C° 0 mm 1 mps 608 mmHg 54%
    10:00 +10°C° 0 mm 1 mps 609 mmHg 47%
    11:00 +10°C° 0 mm 1 mps 608 mmHg 47%
    12:00 +10°C° 0 mm 2 mps 608 mmHg 47%
    13:00 +10°C° 0 mm 2 mps 608 mmHg 46%
    14:00 +9°C° 0 mm 2 mps 607 mmHg 52%
    15:00 +8°C° 0 mm 2 mps 607 mmHg 58%
    16:00 +8°C° 0 mm 1 mps 606 mmHg 64%
    17:00 +6°C° 0 mm 1 mps 606 mmHg 72%
    18:00 +4°C° 0 mm 1 mps 605 mmHg 79%
    19:00 +2°C° 0 mm 1 mps 604 mmHg 87%
    20:00 +2°C° 0 mm 1 mps 604 mmHg 87%
    21:00 +2°C° 0 mm 1 mps 604 mmHg 86%
    22:00 +2°C° 0 mm 1 mps 604 mmHg 86%
    23:00 +2°C° 0 mm 1 mps 604 mmHg 86%

    25 September, Tuesday

    Time Temperature Precipitation Wind Pressure Humidity
    00:00 +1°C° 0 mm 1 mps 604 mmHg 86%
    01:00 -1°C° 0 mm 2 mps 603 mmHg 86%
    02:00 +1°C° 0 mm 1 mps 603 mmHg 85%
    03:00 +1°C° 0 mm 1 mps 603 mmHg 85%
    04:00 +1°C° 0 mm 1 mps 603 mmHg 85%
    05:00 +2°C° 0.1 mm 1 mps 603 mmHg 84%
    06:00 +2°C° 0.1 mm 1 mps 603 mmHg 83%
    07:00 +3°C° 0.1 mm 1 mps 603 mmHg 83%
    08:00 +4°C° 0.2 mm 1 mps 603 mmHg 80%
    09:00 +5°C° 0.2 mm 1 mps 603 mmHg 77%
    10:00 +6°C° 0.2 mm 1 mps 604 mmHg 74%
    11:00 +6°C° 0.5 mm 1 mps 603 mmHg 77%
    12:00 +6°C° 0.5 mm 1 mps 603 mmHg 80%
    13:00 +6°C° 0.5 mm 1 mps 602 mmHg 83%
    14:00 +5°C° 1 mm 1 mps 602 mmHg 86%
    15:00 +5°C° 1 mm 1 mps 602 mmHg 89%
    16:00 +4°C° 1 mm 1 mps 602 mmHg 93%
    17:00 +3°C° 1.1 mm 1 mps 602 mmHg 94%
    18:00 +3°C° 1.1 mm 1 mps 602 mmHg 96%
    19:00 +2°C° 1.1 mm 1 mps 602 mmHg 97%
    20:00 +2°C° 0.3 mm 1 mps 602 mmHg 97%
    21:00 +2°C° 0.3 mm 1 mps 602 mmHg 97%
    22:00 +2°C° 0.3 mm 1 mps 602 mmHg 97%
    23:00 +2°C° 0.1 mm 1 mps 602 mmHg 97%

    26 September, Wednesday

    Time Temperature Precipitation Wind Pressure Humidity
    00:00 +2°C° 0.1 mm 1 mps 602 mmHg 97%
    01:00 +2°C° 0.1 mm 1 mps 602 mmHg 97%
    02:00 +1°C° 0.1 mm 1 mps 602 mmHg 97%
    03:00 +1°C° 0.1 mm 1 mps 602 mmHg 97%
    04:00 +1°C° 0.1 mm 1 mps 602 mmHg 97%
    05:00 +1°C° 0 mm 1 mps 602 mmHg 96%
    06:00 +1°C° 0 mm 1 mps 602 mmHg 95%
    07:00 0°C° 0 mm 1 mps 602 mmHg 95%
    08:00 +2°C° 0 mm 1 mps 603 mmHg 86%
    09:00 +4°C° 0 mm 1 mps 604 mmHg 78%
    10:00 +6°C° 0 mm 1 mps 604 mmHg 70%
    11:00 +6°C° 0.2 mm 1 mps 604 mmHg 67%
    12:00 +6°C° 0.2 mm 2 mps 604 mmHg 65%
    13:00 +6°C° 0.2 mm 2 mps 604 mmHg 63%
    14:00 +4°C° 1 mm 2 mps 603 mmHg 72%
    15:00 +1°C° 1 mm 3 mps 603 mmHg 81%
    16:00 0°C° 1 mm 3 mps 602 mmHg 90%
    17:00 -1°C° 2.4 mm 3 mps 602 mmHg 91%
    18:00 -2°C° 2.4 mm 2 mps 603 mmHg 92%
    19:00 -3°C° 2.4 mm 2 mps 603 mmHg 94%
    20:00 -4°C° 0.4 mm 2 mps 603 mmHg 93%
    21:00 -4°C° 0.4 mm 2 mps 603 mmHg 93%
    22:00 -5°C° 0.4 mm 2 mps 604 mmHg 93%
    23:00 -3°C° 0.1 mm 1 mps 604 mmHg 93%
    Show more